Dewpoint
58 56 59 57 60 60 64 62 60 59 60 62 62 64 67 64 64 64 66 66 68 66 66 66 68 65 68 66 66 65 66 66 66 66 67 69 70 68 67 68 68 68 68 68 67 68 67 67 67 67 67 68 68 67 67 67 66 66 66 66 66 66 66 66 66 66 66 65 65 64 63 63 62 62 62 61 64 64 64 65 65 65 64 64 64
59 58 56 60 59 63 61 61 61 62 61 61 62 64 66 63 64 65 64 66 65 65 65 67 67 67 66 67 67 66 68 68 66 67 68 69 69 68 68 67 68 68 67 68 68 68 67 67 67 67 67 67 68 68 67 67 67 66 66 67 67 66 66 66 66 66 66 66 65 64 63 63 62 62 62 61 63 64 63 63 65 65 64 64 63
59 59 58 60 61 59 61 61 61 61 62 60 62 64 66 67 67 66 67 67 64 66 66 64 67 67 66 67 68 67 68 65 67 67 67 69 68 69 68 67 68 68 67 68 68 68 67 67 67 67 67 68 68 68 67 68 68 66 66 67 67 66 66 66 66 66 66 66 65 64 63 63 62 62 61 61 62 64 63 63 64 65 64 64 63
61 59 58 59 56 57 58 61 62 63 64 62 61 62 61 62 63 64 65 66 64 64 66 67 67 66 66 65 66 67 66 65 65 67 67 68 69 69 69 68 67 68 68 68 68 67 67 67 67 67 67 67 67 67 68 67 68 66 66 67 67 66 66 66 66 66 65 66 65 64 64 63 63 62 61 61 61 61 63 63 63 64 64 64 64
63 61 59 55 57 58 56 59 58 61 65 65 62 64 64 62 62 62 63 62 62 63 65 66 67 63 65 67 66 64 65 66 69 66 68 68 69 67 68 68 68 67 67 67 67 67 67 67 67 67 67 67 67 67 67 66 67 66 66 67 67 66 66 66 66 66 66 66 65 65 64 63 63 62 62 61 60 60 63 63 63 64 64 64 64
62 61 61 60 60 59 57 59 58 59 64 63 59 65 65 61 60 60 63 62 60 61 62 63 67 67 65 64 66 67 66 65 66 66 68 68 68 67 67 67 69 69 68 67 67 67 67 67 67 68 68 67 67 67 66 67 67 67 67 66 66 67 66 66 66 66 66 66 66 65 64 64 63 62 62 61 60 60 62 64 63 63 64 64 64
60 62 60 61 61 59 57 56 57 58 58 60 59 62 59 60 61 58 60 63 62 63 61 61 65 65 64 65 68 65 66 64 64 64 67 65 67 65 67 68 68 68 69 67 67 67 67 67 67 67 67 67 67 67 67 68 67 67 67 67 67 66 67 66 66 66 66 66 66 65 65 64 63 63 63 62 61 61 61 63 63 63 64 64 64
58 60 61 60 60 58 59 57 57 55 58 58 60 60 59 60 60 59 58 58 60 60 62 61 63 64 65 66 68 67 69 64 66 66 65 65 65 65 66 67 67 67 68 68 68 67 67 68 67 67 67 67 67 67 67 67 67 67 67 67 67 66 67 66 66 66 66 66 66 66 65 65 64 64 63 63 62 61 61 62 64 63 64 64 64
58 58 62 58 58 58 56 58 57 55 57 56 57 61 58 58 59 60 59 58 56 57 60 60 60 62 64 66 66 67 66 67 68 67 67 65 64 65 65 65 66 66 68 68 68 67 67 67 67 67 67 67 67 67 67 67 67 67 68 67 67 66 66 67 66 66 66 66 65 65 66 65 65 64 63 63 62 61 61 61 63 64 64 64 64
61 61 63 58 58 58 57 58 59 57 58 56 56 55 58 59 58 60 60 57 58 57 59 59 60 62 65 64 66 67 68 67 67 68 69 65 65 64 65 66 67 67 67 68 67 68 68 67 67 67 67 67 67 67 67 67 67 66 67 67 67 66 66 66 67 66 66 66 66 65 65 65 65 65 63 62 61 61 61 61 61 62 64 63 63
63 63 62 60 59 58 59 58 61 60 58 55 55 55 56 58 58 58 60 61 57 60 60 61 61 63 64 65 66 67 67 66 69 68 66 65 64 66 67 65 66 66 67 67 68 67 67 67 67 67 67 67 67 67 67 67 67 66 67 67 66 67 67 66 66 66 66 66 66 65 64 65 65 65 64 63 62 61 61 61 61 60 63 63 62
63 61 61 60 60 59 59 57 58 61 59 57 57 55 55 57 57 57 57 57 60 56 61 60 62 63 63 63 65 65 65 65 64 64 64 65 64 65 63 65 64 65 66 67 67 67 66 66 68 67 67 67 67 67 67 67 66 66 67 67 67 67 67 66 66 66 66 66 65 65 65 64 65 65 64 63 62 61 61 60 60 60 61 63 62
63 59 58 59 62 60 59 59 57 59 61 60 59 60 58 58 58 60 57 58 59 57 60 60 62 64 63 63 62 66 65 64 64 64 65 64 64 64 64 64 64 64 67 67 67 67 67 68 67 67 67 67 67 67 67 67 66 67 67 66 67 67 67 67 65 66 66 66 66 66 65 64 64 65 65 63 63 62 61 61 60 60 59 59 61
65 58 57 56 62 61 62 61 60 57 60 57 57 60 60 57 58 56 57 55 60 57 58 59 58 58 60 60 62 65 65 63 62 63 64 64 64 63 64 65 64 64 64 64 66 66 68 67 67 67 68 67 67 67 67 66 67 66 65 66 66 67 66 66 66 66 66 66 66 66 65 64 64 64 64 64 64 63 62 61 60 60 59 59 58
58 58 56 57 59 63 60 60 59 59 60 57 55 57 60 57 56 56 54 55 58 60 59 59 57 58 60 60 59 59 62 63 64 64 63 63 63 63 63 63 64 63 64 63 63 65 67 66 66 67 67 67 66 67 66 65 66 66 66 66 66 66 67 67 67 66 66 66 66 66 65 65 64 64 64 64 64 64 63 62 61 60 60 59 60
60 53 54 58 59 58 62 60 59 59 59 61 60 51 54 55 53 55 55 53 53 56 59 59 59 57 55 57 59 58 55 58 60 63 65 64 63 62 63 63 63 63 64 63 65 65 67 66 66 67 67 66 66 66 66 67 66 66 67 66 66 66 67 67 67 66 66 66 66 66 65 65 65 64 64 64 64 64 63 63 62 62 61 61 62
61 55 54 57 60 60 59 62 59 61 58 58 56 56 53 51 53 54 54 55 54 56 60 60 58 59 59 57 56 54 55 56 56 61 65 64 63 63 62 62 62 63 63 64 65 64 65 65 67 67 67 67 66 65 66 66 66 66 66 66 66 66 65 66 67 67 66 66 66 66 66 65 65 65 64 64 64 64 64 63 63 63 62 62 62
60 59 54 58 61 61 59 59 60 67 56 56 53 58 54 54 53 54 54 56 55 55 53 56 59 56 59 60 59 56 55 55 56 53 62 62 62 62 61 61 62 61 61 63 64 65 66 66 66 66 66 66 66 66 66 66 66 66 67 65 66 66 65 65 66 67 67 66 66 66 66 66 66 65 65 64 64 64 64 64 64 64 64 63 63
61 63 60 59 61 62 61 59 57 59 58 57 58 54 52 53 54 55 56 56 56 54 55 54 56 55 54 57 60 61 57 55 52 53 52 61 64 61 61 62 61 61 60 61 64 66 66 66 66 66 66 65 65 67 66 66 65 65 65 65 66 66 66 66 66 66 67 66 66 65 66 66 66 66 66 65 64 64 64 64 64 64 64 64 64
62 63 63 58 62 62 62 60 60 57 58 56 57 55 56 57 58 58 59 57 56 55 56 55 54 54 55 56 57 59 58 57 55 53 53 51 56 61 63 61 61 62 66 61 61 62 65 67 66 66 66 64 64 66 67 66 66 66 65 65 65 66 66 65 66 66 67 67 67 66 66 66 66 66 66 66 65 65 65 65 65 65 65 65 64
64 63 63 57 62 64 61 62 59 60 59 60 59 56 58 60 58 58 58 59 58 58 57 56 55 54 54 54 54 52 55 56 54 55 52 51 51 52 57 57 61 59 60 64 62 65 63 63 62 63 65 65 64 65 66 66 66 66 66 65 64 65 66 65 65 65 65 66 66 66 66 66 66 66 66 65 66 65 65 65 65 65 65 65 65
65 64 62 59 62 61 61 61 61 59 63 61 60 59 58 58 59 59 57 59 60 58 58 58 58 56 54 55 54 54 52 53 52 52 52 54 49 50 51 54 51 58 61 64 60 62 62 64 65 62 62 63 65 65 65 65 66 66 65 65 65 65 65 66 66 65 65 65 66 66 66 66 66 65 66 65 65 65 66 65 65 65 65 65 65
66 66 65 65 60 62 60 60 60 66 61 61 59 63 57 61 60 59 58 57 59 57 57 58 57 58 56 56 55 53 53 52 52 52 52 51 50 49 50 51 49 50 60 56 58 55 59 61 60 62 63 62 64 65 65 64 62 64 65 65 65 65 65 65 65 65 66 66 66 65 65 66 66 66 66 66 66 66 66 64 64 64 65 65 65
65 65 64 63 65 64 59 62 59 61 63 65 62 57 60 62 59 60 59 60 58 60 58 60 58 57 58 61 58 57 56 54 54 54 53 53 51 50 50 50 51 49 56 60 55 55 58 58 58 59 62 59 60 64 64 65 63 62 63 65 65 64 65 65 65 65 65 66 66 66 66 66 66 66 66 66 66 66 66 66 65 64 64 64 65
64 63 64 64 64 63 64 65 67 64 62 61 61 58 59 62 60 60 59 58 58 57 59 58 58 56 56 56 58 58 57 56 55 55 55 55 54 52 50 51 50 50 51 54 55 55 53 57 57 57 60 60 61 61 64 66 63 62 63 63 63 65 65 65 65 65 65 65 65 65 66 66 67 67 67 66 66 66 66 66 65 65 64 64 64
65 64 67 63 63 63 62 64 63 59 60 59 59 59 60 61 60 62 59 61 62 59 59 58 59 58 58 58 55 54 62 57 57 57 54 54 53 53 52 52 51 50 51 49 51 51 50 54 54 55 55 58 59 61 61 60 63 59 59 62 64 65 65 65 65 65 65 66 65 65 66 66 66 66 66 67 67 66 66 66 66 65 65 64 64
66 70 66 65 65 63 63 64 61 63 62 59 59 60 61 61 62 63 61 59 60 59 59 60 58 57 56 57 56 59 57 61 58 61 58 57 54 55 52 50 49 51 50 49 46 47 48 43 50 52 55 57 58 61 63 61 59 58 58 64 65 63 64 64 64 64 65 65 65 65 65 65 66 66 65 66 66 65 65 66 66 66 66 65 65
66 66 65 65 64 64 63 62 64 61 62 61 58 58 63 60 62 62 59 60 58 58 62 61 59 57 59 59 57 58 57 58 61 59 61 57 55 56 55 52 50 47 49 49 49 45 42 48 49 49 51 54 60 59 60 60 62 57 58 65 65 63 62 63 64 64 64 64 64 64 65 65 65 66 66 65 64 64 65 66 66 66 66 66 66
66 66 67 66 66 65 64 64 63 65 63 62 60 58 59 61 59 57 60 62 61 58 60 57 58 60 60 58 60 59 57 59 58 59 57 59 57 56 56 54 53 50 48 48 49 51 46 45 51 49 50 57 55 56 59 59 57 57 59 63 65 65 61 60 61 62 64 64 64 64 64 64 65 65 65 65 66 65 66 66 65 64 65 66 65
65 64 66 66 65 63 64 65 64 62 63 63 62 60 59 59 60 60 57 60 62 59 59 58 59 61 59 57 60 59 59 58 57 61 58 57 56 56 56 57 56 51 51 50 49 52 50 51 47 50 54 54 57 54 55 56 54 61 56 59 63 64 59 59 58 59 61 62 63 63 63 64 64 65 65 65 66 66 66 65 65 65 65 65 65
66 66 65 63 64 64 64 63 63 62 61 61 62 62 60 60 59 60 60 59 57 58 59 58 58 57 57 56 62 59 58 58 59 58 62 57 57 55 55 58 56 55 53 51 48 51 52 53 52 48 50 53 54 54 56 56 55 55 56 56 58 62 60 60 59 58 59 58 58 57 58 61 63 64 64 64 65 65 65 65 65 65 65 64 62
67 65 65 63 63 62 61 61 61 61 61 61 61 60 61 59 59 59 59 58 56 56 57 57 56 57 57 57 58 57 58 59 58 58 57 57 56 55 56 58 55 55 54 53 50 50 53 53 53 51 46 52 51 53 55 57 62 55 54 55 63 59 60 62 58 58 57 56 56 56 55 57 60 62 62 63 63 63 63 63 63 60 59 60 61
67 65 63 61 60 61 59 59 58 60 61 62 61 61 61 61 59 58 57 55 55 56 56 56 56 56 56 54 54 56 57 56 56 57 56 56 56 55 56 55 54 54 53 53 51 50 52 55 54 52 51 51 49 52 51 53 53 52 52 54 56 59 59 63 60 55 56 56 56 54 54 54 56 56 58 61 62 60 59 59 56 55 58 60 60
63 61 59 59 61 62 59 58 60 58 59 58 61 60 59 60 59 59 58 56 55 53 55 56 57 57 58 54 53 55 56 56 56 53 54 57 56 58 54 54 54 54 55 53 52 52 49 51 53 53 51 51 53 52 52 53 53 53 51 51 51 52 54 61 59 58 55 54 55 55 54 54 53 53 53 58 60 56 52 53 54 53 54 55 55
63 62 62 63 62 61 59 60 58 58 58 58 61 60 59 58 57 58 58 56 56 56 55 54 51 54 55 55 54 55 57 55 56 55 57 55 54 52 52 55 54 54 54 53 52 51 51 51 53 50 50 55 52 49 50 52 53 52 50 49 48 53 54 58 59 58 52 53 53 53 53 54 53 53 53 54 55 53 53 52 52 52 51 52 53
61 65 65 60 58 61 61 60 58 58 57 59 60 59 58 57 57 57 57 56 55 55 54 51 52 54 54 55 55 55 57 56 57 57 57 56 55 54 52 52 56 53 54 55 53 51 51 50 51 50 50 53 50 49 55 54 56 53 52 53 51 48 48 57 58 59 54 52 53 53 52 53 54 54 53 53 53 53 52 52 51 51 51 52 51
62 62 63 62 62 59 59 56 55 55 56 56 56 58 59 60 58 58 58 56 56 55 54 53 55 53 53 55 56 55 56 56 55 55 56 55 53 53 53 53 52 56 54 52 53 52 52 51 52 52 52 52 51 50 49 49 53 51 52 51 53 54 53 52 54 58 55 53 54 53 52 53 54 54 53 53 52 52 52 51 51 51 51 50 50
63 64 63 63 60 57 56 55 55 56 55 56 55 55 56 59 59 58 57 57 57 56 56 55 53 53 54 52 52 53 51 53 55 55 55 54 55 56 56 52 50 52 52 56 55 53 51 50 49 49 50 49 48 51 50 50 51 51 51 51 54 55 55 53 54 56 58 57 58 58 52 52 52 53 53 53 52 51 51 51 51 51 50 50 49
63 64 64 61 62 60 57 58 57 56 55 54 57 60 58 57 58 57 58 58 57 57 56 55 55 55 54 54 55 54 53 53 54 55 55 55 55 54 53 52 53 52 52 51 50 51 51 52 52 50 50 51 48 47 48 53 51 52 51 53 51 54 53 55 56 56 55 58 57 57 57 56 55 53 52 51 51 51 51 51 51 51 50 49 48
62 60 60 60 61 60 60 58 58 59 59 58 58 57 57 58 59 59 58 58 58 58 58 57 56 56 55 54 53 54 56 57 57 56 55 56 56 55 56 55 55 54 53 53 52 50 50 50 47 47 48 47 52 52 53 51 51 51 54 52 51 52 53 54 54 53 54 55 54 58 55 55 55 56 53 52 52 52 52 51 51 51 50 49 48
63 62 62 60 58 58 58 59 58 59 60 58 57 58 60 58 59 59 58 57 58 58 57 58 57 57 56 56 56 55 56 61 59 58 59 59 56 56 55 54 54 53 52 52 53 52 50 50 50 49 47 48 50 51 49 51 52 52 51 53 51 52 53 53 53 56 56 56 57 56 55 55 59 57 56 56 55 53 52 52 52 52 50 49 48
62 62 60 60 58 58 57 56 56 58 60 60 61 58 56 58 60 59 59 58 58 57 57 57 57 57 56 56 57 60 60 60 60 57 55 55 57 57 56 56 55 54 54 52 50 50 50 49 48 48 48 48 45 47 49 50 56 52 52 52 51 52 51 51 51 52 57 54 52 53 54 55 55 57 58 58 59 57 55 53 52 51 49 48 48
62 61 61 59 59 60 57 56 56 57 58 59 55 50 48 50 56 58 57 59 59 58 57 56 56 56 56 55 56 59 60 60 58 54 52 50 50 51 52 55 58 55 55 55 52 51 50 50 50 49 48 47 49 51 52 52 52 50 50 52 51 51 49 48 48 51 55 57 54 53 53 56 54 52 52 56 60 58 57 55 52 51 49 48 48
63 64 63 61 61 61 59 58 58 58 59 58 49 47 46 46 51 56 57 56 55 55 55 55 55 55 55 55 56 57 57 57 57 57 54 51 48 48 48 48 49 49 51 53 53 55 53 50 50 49 48 49 50 51 50 52 52 51 51 51 50 49 49 48 48 47 53 55 52 51 51 53 54 53 53 53 57 60 59 55 50 49 48 48 48
61 61 61 63 62 61 60 59 59 61 62 55 48 47 47 48 48 52 57 58 56 55 54 53 52 52 53 56 56 57 55 60 61 59 58 56 51 48 49 49 49 47 43 43 45 52 54 56 55 55 52 50 49 49 53 51 53 49 52 51 50 49 49 49 50 48 55 54 50 49 48 50 50 50 50 52 52 56 57 51 50 48 48 47 47
59 59 60 61 61 60 59 58 62 63 62 58 50 49 48 46 44 46 54 59 60 61 60 59 59 58 58 58 58 58 58 60 60 60 61 59 58 55 52 50 50 51 48 43 43 43 48 51 52 52 53 55 54 54 55 53 52 52 52 50 52 50 50 49 51 53 53 53 50 50 49 50 50 49 47 47 50 57 53 50 48 48 47 47 47
59 59 59 59 59 59 59 61 66 63 64 56 50 49 49 48 46 48 55 59 60 60 60 60 59 59 60 60 60 59 58 59 60 59 59 59 59 60 59 56 55 51 50 50 48 47 47 47 47 49 50 52 54 55 55 55 54 54 54 53 53 52 53 52 50 51 50 52 52 51 48 49 50 49 49 47 53 57 54 49 47 47 47 47 47
59 59 59 59 58 58 58 59 62 64 63 55 50 48 47 47 47 58 61 61 60 59 60 59 59 59 61 60 59 58 57 59 60 53 55 59 58 57 59 58 57 56 54 53 48 47 49 48 47 47 48 49 49 52 55 56 55 55 56 55 53 52 49 48 47 49 48 49 51 51 50 49 50 48 47 49 50 56 52 50 48 48 47 47 46
57 58 57 57 58 58 59 59 63 62 61 57 50 47 46 44 51 60 61 61 60 60 60 60 60 58 58 59 59 58 58 59 57 51 48 52 56 57 57 58 58 58 57 57 51 45 44 44 44 44 43 43 43 44 44 45 52 55 55 53 52 51 49 46 47 47 47 48 52 52 51 49 50 47 48 49 48 52 54 51 49 47 46 46 46
57 56 55 55 57 57 58 59 61 61 60 57 49 49 47 44 51 58 58 57 57 57 57 57 58 58 58 61 62 59 60 59 51 49 49 53 56 57 57 57 57 57 58 59 58 56 46 44 43 43 43 42 42 43 43 43 44 50 51 50 51 50 49 47 45 46 47 48 51 52 52 50 51 48 46 47 47 48 53 52 50 48 46 45 45
56 53 52 52 54 57 60 61 61 60 60 55 46 48 47 47 52 55 54 54 54 55 55 55 56 56 57 60 60 58 58 56 49 47 46 52 57 57 57 57 56 56 57 58 58 58 57 54 51 49 48 47 50 50 49 46 44 50 50 50 51 49 46 46 47 47 46 46 47 53 49 49 48 50 47 46 45 47 50 53 50 48 47 47 46